EFW527R EGKK-LPMA

Flight info

Callsign EFW527R
Flight time N/A
Altitude 37000
Route IMVUR N63 SAM M195 LORKU DCT POZOF DCT LOTEE DCT PINEK DCT VERAM DCT TELMU DCT PECKY DCT LIDRO
Aircraft A20N/M-SDE2E3FGHIRWXY/LB1

Departure

Time 2026-05-04 18:45
Airport London Gatwick Airport (EGKK)

Arrival

Time N/A
Airport Cristiano Ronaldo International Airport (LPMA)
Time Latitude Longitude Altitude Speed Heading
2026-05-04 18:08 51.15866 -0.16907 201 ft 0 kts 128°
2026-05-04 18:19 51.15868 -0.16912 201 ft 1 kts 128°
2026-05-04 18:20 51.15875 -0.16926 214 ft 2 kts 128°
2026-05-04 18:20 51.15884 -0.16945 210 ft 2 kts 128°
2026-05-04 18:20 51.15894 -0.16963 210 ft 2 kts 128°
2026-05-04 18:20 51.15903 -0.16981 214 ft 2 kts 147°
2026-05-04 18:21 51.15917 -0.16991 212 ft 2 kts 170°
2026-05-04 18:21 51.15927 -0.16994 213 ft 3 kts 181°
2026-05-04 18:21 51.15945 -0.16989 211 ft 5 kts 220°
2026-05-04 18:21 51.15950 -0.16982 209 ft 0 kts 225°
2026-05-04 18:24 51.15950 -0.16983 200 ft 0 kts 225°
2026-05-04 18:24 51.15941 -0.16997 209 ft 3 kts 225°
2026-05-04 18:24 51.15923 -0.17025 204 ft 5 kts 223°
2026-05-04 18:25 51.15888 -0.17062 206 ft 9 kts 203°
2026-05-04 18:25 51.15809 -0.17142 207 ft 15 kts 255°
2026-05-04 18:25 51.15795 -0.17255 203 ft 13 kts 258°
2026-05-04 18:25 51.15773 -0.17420 206 ft 17 kts 258°
2026-05-04 18:26 51.15745 -0.17620 210 ft 19 kts 257°
2026-05-04 18:26 51.15715 -0.17837 203 ft 21 kts 258°
2026-05-04 18:26 51.15683 -0.18073 200 ft 23 kts 257°
2026-05-04 18:26 51.15666 -0.18192 204 ft 8 kts 257°
2026-05-04 18:27 51.15663 -0.18215 210 ft 2 kts 257°
2026-05-04 18:27 51.15658 -0.18249 205 ft 5 kts 257°
2026-05-04 18:27 51.15648 -0.18314 206 ft 7 kts 253°
2026-05-04 18:27 51.15602 -0.18348 204 ft 9 kts 179°
2026-05-04 18:28 51.15510 -0.18320 212 ft 16 kts 167°
2026-05-04 18:28 51.15407 -0.18283 201 ft 10 kts 168°
2026-05-04 18:28 51.15349 -0.18264 204 ft 0 kts 168°
2026-05-04 18:28 51.15347 -0.18263 203 ft 0 kts 167°
2026-05-04 18:30 51.15303 -0.18247 205 ft 11 kts 167°
2026-05-04 18:30 51.15228 -0.18220 201 ft 11 kts 172°
2026-05-04 18:30 51.15186 -0.18304 213 ft 13 kts 258°
2026-05-04 18:31 51.15164 -0.18469 205 ft 19 kts 259°
2026-05-04 18:31 51.15125 -0.18763 208 ft 30 kts 257°
2026-05-04 18:31 51.15080 -0.19094 204 ft 30 kts 258°
2026-05-04 18:31 51.15001 -0.19254 204 ft 15 kts 163°
2026-05-04 18:32 51.14956 -0.19335 213 ft 12 kts 255°
2026-05-04 18:32 51.14927 -0.19529 213 ft 23 kts 258°
2026-05-04 18:32 51.14892 -0.19797 207 ft 26 kts 258°
2026-05-04 18:32 51.14851 -0.20089 205 ft 28 kts 257°
2026-05-04 18:33 51.14831 -0.20233 206 ft 1 kts 257°
2026-05-04 18:33 51.14822 -0.20294 207 ft 11 kts 257°
2026-05-04 18:33 51.14803 -0.20432 203 ft 14 kts 257°
2026-05-04 18:33 51.14780 -0.20595 205 ft 16 kts 257°
2026-05-04 18:34 51.14754 -0.20785 210 ft 18 kts 257°
2026-05-04 18:34 51.14726 -0.20987 212 ft 20 kts 258°
2026-05-04 18:34 51.14699 -0.21184 202 ft 14 kts 257°
2026-05-04 18:34 51.14696 -0.21208 210 ft 0 kts 258°
2026-05-04 18:37 51.14695 -0.21212 209 ft 2 kts 258°
2026-05-04 18:37 51.14689 -0.21260 205 ft 7 kts 258°
2026-05-04 18:37 51.14675 -0.21310 201 ft 0 kts 227°
2026-05-04 18:38 51.14673 -0.21314 201 ft 2 kts 227°
2026-05-04 18:38 51.14667 -0.21322 207 ft 0 kts 219°
2026-05-04 18:40 51.14653 -0.21333 205 ft 5 kts 205°
2026-05-04 18:40 51.14628 -0.21331 201 ft 1 kts 167°
2026-05-04 18:40 51.14613 -0.21325 201 ft 0 kts 167°
2026-05-04 18:42 51.14612 -0.21325 201 ft 1 kts 167°
2026-05-04 18:43 51.14576 -0.21310 205 ft 9 kts 159°
2026-05-04 18:43 51.14526 -0.21235 210 ft 11 kts 114°
2026-05-04 18:43 51.14522 -0.21151 201 ft 0 kts 78°
2026-05-04 18:44 51.14522 -0.21150 201 ft 1 kts 78°
2026-05-04 18:44 51.14601 -0.20589 211 ft 85 kts 78°
2026-05-04 18:44 51.14769 -0.19371 202 ft 139 kts 78°
2026-05-04 18:45 51.14988 -0.17704 471 ft 161 kts 77°
2026-05-04 18:45 51.15190 -0.15930 1096 ft 162 kts 79°
2026-05-04 18:45 51.15387 -0.14184 1853 ft 156 kts 77°
2026-05-04 18:45 51.15620 -0.12506 2459 ft 162 kts 75°
2026-05-04 18:46 51.15914 -0.10666 2822 ft 181 kts 74°
2026-05-04 18:46 51.16245 -0.08550 2975 ft 214 kts 74°
2026-05-04 18:46 51.16947 -0.06409 3003 ft 222 kts 44°
2026-05-04 18:46 51.18286 -0.05213 3116 ft 226 kts 11°
2026-05-04 18:47 51.19858 -0.05370 3678 ft 231 kts 347°
2026-05-04 18:47 51.21312 -0.06121 4612 ft 229 kts 330°
2026-05-04 18:47 51.22464 -0.07940 5414 ft 235 kts 298°
2026-05-04 18:47 51.22849 -0.10455 6206 ft 238 kts 266°
2026-05-04 18:48 51.22601 -0.13085 6825 ft 251 kts 258°
2026-05-04 18:48 51.22203 -0.15901 7236 ft 271 kts 256°
2026-05-04 18:48 51.21780 -0.18884 7976 ft 277 kts 257°
2026-05-04 18:48 51.21386 -0.21898 8834 ft 280 kts 258°
2026-05-04 18:49 51.21014 -0.24950 9673 ft 283 kts 258°
2026-05-04 18:49 51.20649 -0.28063 10450 ft 287 kts 258°
2026-05-04 18:49 51.20284 -0.31219 11178 ft 292 kts 259°
2026-05-04 18:49 51.19913 -0.34419 11894 ft 296 kts 259°
2026-05-04 18:50 51.19517 -0.37666 12633 ft 300 kts 258°
2026-05-04 18:50 51.19087 -0.40945 13361 ft 304 kts 258°
2026-05-04 18:50 51.18650 -0.44232 14054 ft 308 kts 258°
2026-05-04 18:50 51.18204 -0.47593 14719 ft 311 kts 258°
2026-05-04 18:51 51.17754 -0.51013 15411 ft 314 kts 258°
2026-05-04 18:51 51.17177 -0.54331 16046 ft 317 kts 249°
2026-05-04 18:51 51.16314 -0.57595 16532 ft 327 kts 246°
2026-05-04 18:51 51.15390 -0.61027 16715 ft 345 kts 246°
2026-05-04 18:52 51.14482 -0.64426 16886 ft 362 kts 246°
2026-05-04 18:52 51.13518 -0.68046 17210 ft 373 kts 246°
2026-05-04 18:52 51.12503 -0.71856 17852 ft 376 kts 246°
2026-05-04 18:52 51.11475 -0.75707 18464 ft 379 kts 246°
2026-05-04 18:53 51.10437 -0.79584 19026 ft 381 kts 246°
2026-05-04 18:53 51.09394 -0.83472 19581 ft 384 kts 246°
2026-05-04 18:53 51.08352 -0.87346 20149 ft 386 kts 245°
2026-05-04 18:53 51.07279 -0.91329 20690 ft 389 kts 245°
2026-05-04 18:54 51.06221 -0.95247 21230 ft 392 kts 245°
2026-05-04 18:54 51.05143 -0.99235 21764 ft 395 kts 245°
2026-05-04 18:54 51.04053 -1.03260 22296 ft 398 kts 245°
2026-05-04 18:54 51.02954 -1.07311 22832 ft 400 kts 245°
2026-05-04 18:55 51.01847 -1.11386 23366 ft 403 kts 245°
2026-05-04 18:55 50.99607 -1.19608 24325 ft 407 kts 244°
2026-05-04 18:55 50.98479 -1.23737 24778 ft 409 kts 244°
2026-05-04 18:56 50.97361 -1.27823 25207 ft 410 kts 244°
2026-05-04 18:56 50.96016 -1.31876 25630 ft 409 kts 233°
2026-05-04 18:56 50.94254 -1.35305 26033 ft 408 kts 222°
2026-05-04 18:56 50.92069 -1.38157 26430 ft 406 kts 211°
2026-05-04 18:57 50.89692 -1.40606 26838 ft 408 kts 211°
2026-05-04 18:57 50.87325 -1.43057 27236 ft 410 kts 211°
2026-05-04 18:57 50.84928 -1.45545 27629 ft 411 kts 211°
2026-05-04 18:57 50.82572 -1.47993 27988 ft 413 kts 211°
2026-05-04 18:58 50.80163 -1.50493 28348 ft 415 kts 211°
2026-05-04 18:58 50.77739 -1.53003 28701 ft 416 kts 211°
2026-05-04 18:58 50.75313 -1.55514 29026 ft 418 kts 211°
2026-05-04 18:58 50.72873 -1.58035 29355 ft 420 kts 211°
2026-05-04 18:59 50.70432 -1.60554 29683 ft 421 kts 211°
2026-05-04 18:59 50.68006 -1.63054 30019 ft 423 kts 211°
2026-05-04 18:59 50.65537 -1.65595 30279 ft 425 kts 211°
2026-05-04 18:59 50.63055 -1.68146 30505 ft 427 kts 211°
2026-05-04 19:00 50.60569 -1.70698 30748 ft 430 kts 211°
2026-05-04 19:00 50.58043 -1.73287 30981 ft 432 kts 211°
2026-05-04 19:00 50.55520 -1.75871 31265 ft 433 kts 211°
2026-05-04 19:00 50.52996 -1.78452 31565 ft 434 kts 211°
2026-05-04 19:01 50.50465 -1.81038 31873 ft 434 kts 211°
2026-05-04 19:01 50.47928 -1.83625 32165 ft 435 kts 211°
2026-05-04 19:01 50.45389 -1.86212 32445 ft 435 kts 211°
2026-05-04 19:01 50.42847 -1.88796 32726 ft 436 kts 211°
2026-05-04 19:02 50.40337 -1.91346 32999 ft 436 kts 211°
2026-05-04 19:02 50.37791 -1.93928 33261 ft 437 kts 211°
2026-05-04 19:02 50.35240 -1.96512 33506 ft 437 kts 211°
2026-05-04 19:02 50.32692 -1.99090 33769 ft 437 kts 211°
2026-05-04 19:03 50.30130 -2.01678 33997 ft 438 kts 211°
2026-05-04 19:03 50.27564 -2.04267 34204 ft 439 kts 211°
2026-05-04 19:03 50.25000 -2.06851 34412 ft 439 kts 211°
2026-05-04 19:03 50.22424 -2.09419 34598 ft 439 kts 211°
2026-05-04 19:04 50.19832 -2.11947 34796 ft 440 kts 210°
2026-05-04 19:04 50.17228 -2.14468 34972 ft 440 kts 210°
2026-05-04 19:04 50.12034 -2.19498 34995 ft 439 kts 211°
2026-05-04 19:05 50.06848 -2.24525 34997 ft 439 kts 211°
2026-05-04 19:05 50.01688 -2.29518 35120 ft 441 kts 211°
2026-05-04 19:06 49.99097 -2.32020 35322 ft 441 kts 211°
2026-05-04 19:06 49.96473 -2.34551 35506 ft 441 kts 211°
2026-05-04 19:06 49.93852 -2.36988 35677 ft 441 kts 207°
2026-05-04 19:06 49.91093 -2.39048 35840 ft 441 kts 203°
2026-05-04 19:07 49.88296 -2.40984 36001 ft 441 kts 203°
2026-05-04 19:07 49.85530 -2.42904 36159 ft 441 kts 203°
2026-05-04 19:07 49.82737 -2.44849 36308 ft 441 kts 204°
2026-05-04 19:07 49.79936 -2.46802 36476 ft 441 kts 204°